Location: Dompnac
(44.5644°N, 4.1026°E)
Time: 11:17:05
(UTC+00:00)

CENTAUR R/B - Pass Details

Date: 19 September 2020
Orbit: 753 x 1435 km, 63.5° (Epoch: 26 October)

Event Time Altitude Azimuth Distance (km) Brightness Sun altitude
Rises 20:26:13 0° 321° (NW) 4,165 6.9 -27.8°
Reaches altitude 10° 20:28:52 10° 320° (NW) 3,277 6.1 -28.2°
Maximum altitude 20:37:01 78° 236° (WSW) 1,415 3.2 -29.4°
Enters shadow 20:39:09 56° 166° (SSE) 1,635 3.3 -29.7°
